Date String (YYYY-MM-DD hh:mm:ss) UTC,Instrument flags,absolute air pressure of the measurement (hPa),sample flow rate (lpm),inlet stack bypass flow (lpm),air temperature of the measurement (°C),ambient temperature measured by the external sensor (°C),aerosol sample conditioner tube jacket temperature (°C),OPC LED temperature (°C),internal box temperature (°C),relative humidity of the measurement (%),span deviation,mass concentration of particles derived from Lorenz-Mie calculation of OPC scattering (μg/m³),mass concentration of particles derived from Lorenz-Mie calculation of OPC scattering (μg/m³),mass concentration of particles derived from Lorenz-Mie calculation of OPC scattering (μg/m³)
DateTimeUTC,F1_M11,P_M11,Q1_M11,Q2_M11,T1_M11,T2_M11,T3_M11,T4_M11,T5_M11,U1_M11,ZSPAN_M11,X2_M11,X0_M11,X1_M11
2023-06-17 11:00:00,SystemResetWarning,0831.8,4.99,000.00,029.7,028.0,000.0,038.4,031.2,25.0,0000.0,0003.55,0005.27,0003.30
2023-06-17 11:01:00,SystemResetWarning,0831.9,4.99,000.00,029.7,028.0,000.0,038.4,031.2,25.1,0000.0,0003.52,0005.17,0003.28
2023-06-17 11:02:00,SystemResetWarning,0832.3,5.01,000.00,029.7,028.0,000.0,038.4,031.1,25.1,0000.0,0003.50,0005.08,0003.27
2023-06-17 11:03:00,SystemResetWarning,0831.8,5.01,000.00,029.7,028.0,000.0,038.4,031.1,25.1,0000.0,0003.46,0004.83,0003.26
2023-06-17 11:04:00,SystemResetWarning,0831.8,5.00,000.00,029.7,028.0,000.0,038.4,031.1,25.1,0000.0,0003.44,0004.62,0003.26
2023-06-17 11:05:00,SystemResetWarning,0831.7,4.99,000.00,029.7,027.9,000.0,038.4,031.0,25.2,0000.0,0003.44,0004.58,0003.26
2023-06-17 11:06:00,SystemResetWarning,0831.7,4.99,000.00,029.6,027.9,000.0,038.4,031.0,25.2,0000.0,0003.43,0004.47,0003.27
2023-06-17 11:07:00,SystemResetWarning,0831.7,4.99,000.00,029.6,027.9,000.0,038.4,031.0,25.0,0000.0,0003.43,0004.49,0003.26
2023-06-17 11:08:00,SystemResetWarning,0831.7,5.00,000.00,029.6,027.9,000.0,038.4,031.1,24.9,0000.0,0003.41,0004.42,0003.25
2023-06-17 11:09:00,SystemResetWarning,0831.7,5.01,000.00,029.6,027.9,000.0,038.4,031.0,24.8,0000.0,0003.39,0004.76,0003.24
2023-06-17 11:10:00,SystemResetWarning,0831.7,5.01,000.00,029.6,027.9,000.0,038.3,031.1,24.5,0000.0,0003.38,0005.31,0003.23
2023-06-17 11:11:00,SystemResetWarning,0831.7,5.01,000.00,029.6,027.9,000.0,038.3,031.1,24.3,0000.0,0003.37,0005.33,0003.19
2023-06-17 11:12:00,SystemResetWarning,0831.7,5.00,000.00,029.6,027.9,000.0,038.3,031.1,24.2,0000.0,0003.33,0005.25,0003.16
2023-06-17 11:13:00,SystemResetWarning,0831.7,5.00,000.00,029.6,027.9,000.0,038.3,031.2,24.2,0000.0,0003.31,0005.29,0003.12
2023-06-17 11:14:00,SystemResetWarning,0831.7,4.99,000.00,029.6,027.9,000.0,038.3,031.2,24.3,0000.0,0003.29,0005.36,0003.09
2023-06-17 11:15:00,SystemResetWarning,0831.7,5.00,000.00,029.6,027.9,000.0,038.3,031.1,24.1,0000.0,0003.26,0005.37,0003.03
2023-06-17 11:16:00,SystemResetWarning,0831.7,4.99,000.00,029.6,027.9,000.0,038.3,031.1,23.9,0000.0,0003.21,0005.29,0002.94
2023-06-17 11:17:00,SystemResetWarning,0831.7,5.01,000.00,029.6,027.9,000.0,038.3,031.1,23.8,0000.0,0003.15,0005.18,0002.82
2023-06-17 11:18:00,SystemResetWarning,0831.7,5.01,000.00,029.6,027.9,000.0,038.3,031.1,23.7,0000.0,0003.07,0004.99,0002.71
2023-06-17 11:19:00,SystemResetWarning,0831.7,5.00,000.00,029.6,027.9,000.0,038.3,031.1,23.8,0000.0,0003.00,0004.99,0002.63
2023-06-17 11:20:00,SystemResetWarning,0831.7,5.00,000.00,029.6,027.8,000.0,038.3,031.1,23.6,0000.0,0002.97,0004.71,0002.53
2023-06-17 11:21:00,SystemResetWarning,0831.6,5.01,000.00,029.6,027.8,000.0,038.3,031.1,23.5,0000.0,0002.87,0004.01,0002.44
2023-06-17 11:22:00,SystemResetWarning,0831.6,5.00,000.00,029.6,027.8,000.0,038.3,031.1,23.4,0000.0,0002.77,0004.01,0002.36
2023-06-17 11:23:00,SystemResetWarning,0831.6,5.00,000.00,029.6,027.8,000.0,038.3,031.0,23.4,0000.0,0002.71,0004.03,0002.29
2023-06-17 11:24:00,SystemResetWarning,0831.6,5.00,000.00,029.6,027.8,000.0,038.3,031.0,23.3,0000.0,0002.61,0003.91,0002.22
2023-06-17 11:25:00,SystemResetWarning,0831.6,5.00,000.00,029.6,027.8,000.0,038.3,031.1,23.3,0000.0,0002.52,0003.77,0002.13
2023-06-17 11:26:00,SystemResetWarning,0831.5,5.00,000.00,029.6,027.8,000.0,038.3,031.1,23.2,0000.0,0002.43,0003.70,0002.04
2023-06-17 11:27:00,SystemResetWarning,0831.5,5.00,000.00,029.6,027.8,000.0,038.3,031.0,23.2,0000.0,0002.38,0003.68,0001.97
2023-06-17 11:28:00,SystemResetWarning,0831.5,5.00,000.00,029.6,027.8,000.0,038.3,031.0,23.2,0000.0,0002.39,0003.78,0001.95
2023-06-17 11:29:00,SystemResetWarning,0831.5,5.00,000.00,029.6,027.8,000.0,038.3,031.1,23.1,0000.0,0002.32,0003.63,0001.91
2023-06-17 11:30:00,SystemResetWarning,0831.5,5.00,000.00,029.6,027.8,000.0,038.3,031.0,23.2,0000.0,0002.27,0003.56,0001.87
2023-06-17 11:31:00,SystemResetWarning,0831.5,5.00,000.00,029.6,027.8,000.0,038.2,031.0,23.2,0000.0,0002.18,0003.35,0001.84
2023-06-17 11:32:00,SystemResetWarning,0831.5,5.00,000.00,029.6,027.8,000.0,038.2,031.1,23.2,0000.0,0002.19,0003.37,0001.85
2023-06-17 11:33:00,SystemResetWarning,0831.5,5.00,000.00,029.6,027.8,000.0,038.2,031.1,23.2,0000.0,0002.22,0003.25,0001.90
2023-06-17 11:34:00,SystemResetWarning,0831.4,4.99,000.00,029.6,027.8,000.0,038.2,031.1,23.3,0000.0,0002.26,0003.20,0001.95
2023-06-17 11:35:00,SystemResetWarning,0831.4,5.00,000.00,029.6,027.8,000.0,038.2,031.0,23.5,0000.0,0002.30,0003.17,0002.00
2023-06-17 11:36:00,SystemResetWarning,0831.3,5.00,000.00,029.6,027.8,000.0,038.2,031.0,23.4,0000.0,0002.36,0003.23,0002.06
2023-06-17 11:37:00,SystemResetWarning,0831.4,5.00,000.00,029.6,027.8,000.0,038.2,031.0,23.3,0000.0,0002.39,0003.20,0002.09
2023-06-17 11:38:00,SystemResetWarning,0831.3,5.00,000.00,029.6,027.8,000.0,038.2,031.0,23.2,0000.0,0002.41,0003.18,0002.12
2023-06-17 11:39:00,SystemResetWarning,0831.3,5.00,000.00,029.6,027.8,000.0,038.2,031.0,23.2,0000.0,0002.38,0003.17,0002.14
2023-06-17 11:40:00,SystemResetWarning,0831.3,5.00,000.00,029.6,027.8,000.0,038.2,031.0,23.2,0000.0,0002.41,0003.23,0002.15
2023-06-17 11:41:00,SystemResetWarning,0831.3,5.00,000.00,029.6,027.8,000.0,038.2,031.0,23.1,0000.0,0002.39,0003.16,0002.16
2023-06-17 11:42:00,SystemResetWarning,0831.3,5.00,000.00,029.6,027.8,000.0,038.2,031.0,23.1,0000.0,0002.41,0003.18,0002.15
2023-06-17 11:43:00,SystemResetWarning,0831.4,5.00,000.00,029.5,027.8,000.0,038.2,031.0,23.1,0000.0,0002.36,0003.09,0002.12
2023-06-17 11:44:00,SystemResetWarning,0831.4,5.00,000.00,029.6,027.8,000.0,038.2,031.0,22.9,0000.0,0002.30,0003.08,0002.07
2023-06-17 11:45:00,SystemResetWarning,0831.4,5.00,000.00,029.6,027.8,000.0,038.2,031.0,22.6,0000.0,0002.25,0003.04,0002.02
2023-06-17 11:46:00,SystemResetWarning,0831.4,5.00,000.00,029.5,027.7,000.0,038.2,031.0,22.5,0000.0,0002.16,0002.96,0001.92
2023-06-17 11:47:00,SystemResetWarning,0831.4,5.00,000.00,029.5,027.7,000.0,038.2,031.0,22.7,0000.0,0002.09,0002.93,0001.84
2023-06-17 11:48:00,SystemResetWarning,0831.4,5.01,000.00,029.5,027.7,000.0,038.2,031.0,22.7,0000.0,0002.04,0003.08,0001.78
2023-06-17 11:49:00,SystemResetWarning,0831.4,5.00,000.00,029.5,027.7,000.0,038.2,030.9,22.7,0000.0,0001.99,0003.69,0001.72
2023-06-17 11:50:00,SystemResetWarning,0831.4,5.00,000.00,029.5,027.7,000.0,038.2,031.0,22.7,0000.0,0001.95,0003.48,0001.68
2023-06-17 11:51:00,SystemResetWarning,0831.4,5.00,000.00,029.5,027.7,000.0,038.2,031.0,22.7,0000.0,0001.89,0003.38,0001.65
2023-06-17 11:52:00,SystemResetWarning,0831.4,5.00,000.00,029.5,027.7,000.0,038.2,030.9,22.8,0000.0,0001.88,0003.42,0001.62
2023-06-17 11:53:00,SystemResetWarning,0831.4,4.99,000.00,029.5,027.7,000.0,038.2,030.9,22.8,0000.0,0001.86,0003.44,0001.59
2023-06-17 11:54:00,SystemResetWarning,0831.4,5.00,000.00,029.5,027.7,000.0,038.2,030.9,22.9,0000.0,0001.83,0003.46,0001.55
2023-06-17 11:55:00,SystemResetWarning,0831.4,4.99,000.00,029.5,027.7,000.0,038.2,031.0,22.9,0000.0,0001.81,0003.48,0001.53
2023-06-17 11:56:00,SystemResetWarning,0831.4,5.01,000.00,029.5,027.7,000.0,038.2,031.0,22.6,0000.0,0001.82,0003.57,0001.50
2023-06-17 11:57:00,SystemResetWarning,0831.4,5.00,000.00,029.5,027.7,000.0,038.1,030.9,22.6,0000.0,0001.88,0004.39,0001.51
2023-06-17 11:58:00,SystemResetWarning,0831.4,5.01,000.00,029.5,027.7,000.0,038.1,031.0,23.0,0000.0,0001.87,0004.31,0001.51
2023-06-17 11:59:00,SystemResetWarning,0831.4,5.00,000.00,029.5,027.7,000.0,038.2,031.0,23.2,0000.0,0001.85,0004.09,0001.50
